KC8YVF-1 Weather Reports


Display with metric or nautical units.
time (UTC)temp
F
wind
direction
speed
MPH
gust
MPH
rain 1hr
in
rain 24hr
in
rain mn
in
humidity
%
barometer
mb
20260509120511 53 180 0.0 0.0 0.00 0.00 0.00 80 988.8
20260509120011 53 225 0.0 0.0 0.00 0.00 0.00 80 988.8
20260509115510 52 180 0.0 0.0 0.00 0.00 0.00 80 988.8
20260509115010 52 90 0.0 0.0 0.00 0.00 0.00 81 989.0
20260509114510 52 180 0.0 0.0 0.00 0.00 0.00 81 989.1
20260509114011 51 203 0.0 0.0 0.00 0.00 0.00 80 989.1
20260509113512 51 180 0.0 0.0 0.00 0.00 0.00 80 989.1
20260509113010 51 180 0.0 0.0 0.00 0.00 0.00 80 989.1
20260509112511 51 158 0.0 0.0 0.00 0.00 0.00 80 989.1
20260509112011 51 180 0.0 0.0 0.00 0.00 0.00 80 989.1
20260509111017 50 180 0.0 0.0 0.00 0.00 0.00 80 989.1
20260509110011 50 180 0.0 0.0 0.00 0.00 0.00 79 989.1
20260509105517 50 158 0.0 0.0 0.00 0.00 0.00 79 989.1
20260509105010 50 180 0.0 0.0 0.00 0.00 0.00 79 988.9
20260509104510 50 158 0.0 0.0 0.00 0.00 0.00 78 989.1
20260509104018 50 180 0.0 0.0 0.00 0.00 0.00 78 989.5
20260509103511 49 180 0.0 0.0 0.00 0.00 0.00 78 989.5
20260509103010 49 180 0.0 0.0 0.00 0.00 0.00 78 989.5
20260509102511 49 180 0.0 0.0 0.00 0.00 0.00 77 989.5
20260509102010 48 158 0.0 0.0 0.00 0.00 0.00 76 989.5
20260509101511 48 158 0.0 0.0 0.00 0.00 0.00 75 989.5
20260509101011 48 158 0.0 0.0 0.00 0.00 0.00 74 989.6
20260509100011 47 180 0.0 0.0 0.00 0.00 0.00 73 989.8
20260509095511 47 180 0.0 0.0 0.00 0.00 0.00 71 989.9
20260509094510 47 180 0.0 0.0 0.00 0.00 0.00 70 990.0
20260509094017 46 180 0.0 0.0 0.00 0.00 0.00 68 990.1
20260509093510 46 180 0.0 0.0 0.00 0.00 0.00 68 990.1
20260509093010 46 180 0.0 0.0 0.00 0.00 0.00 66 990.1
20260509092516 46 180 0.0 0.0 0.00 0.00 0.00 65 990.1
20260509092010 46 180 0.0 0.0 0.00 0.00 0.00 64 990.5
20260509091010 45 180 0.0 0.0 0.00 0.00 0.00 61 990.5
20260509090509 45 180 0.0 0.0 0.00 0.00 0.00 60 990.5
20260509085517 45 180 0.0 0.0 0.00 0.00 0.00 58 990.5
20260509085010 45 180 0.0 0.0 0.00 0.00 0.00 58 990.8
20260509084510 45 180 0.0 0.0 0.00 0.00 0.00 58 990.8
20260509084009 45 180 0.0 0.0 0.00 0.00 0.00 58 990.8
20260509083510 45 180 0.0 0.0 0.00 0.00 0.00 57 990.8
20260509083010 45 180 0.0 0.0 0.00 0.00 0.00 57 990.8
20260509082509 45 180 0.0 0.0 0.00 0.00 0.00 57 990.9
20260509082009 45 180 0.0 0.0 0.00 0.00 0.00 56 990.9
20260509081510 45 180 0.0 0.0 0.00 0.00 0.00 56 990.9
20260509081009 45 180 0.0 0.0 0.00 0.00 0.00 56 991.1
20260509080510 45 180 0.0 0.0 0.00 0.00 0.00 56 991.1
20260509080009 45 180 0.0 0.0 0.00 0.00 0.00 56 991.1
20260509075517 46 180 0.0 0.0 0.00 0.00 0.00 56 991.1
20260509075009 46 180 0.0 0.0 0.00 0.00 0.00 56 990.9
20260509074510 46 180 0.0 0.0 0.00 0.00 0.00 56 990.8
20260509074010 46 180 0.0 0.0 0.00 0.00 0.00 56 991.1
20260509073509 46 180 0.0 0.0 0.00 0.00 0.00 56 990.9
20260509073009 46 180 0.0 0.0 0.00 0.00 0.00 57 990.9
20260509072508 46 180 0.0 0.0 0.00 0.00 0.00 57 990.8
20260509072010 46 180 0.0 0.0 0.00 0.00 0.00 57 990.8
20260509071510 45 180 0.0 0.0 0.00 0.00 0.00 58 990.8
20260509071017 45 180 0.0 0.0 0.00 0.00 0.00 59 990.8
20260509070009 44 248 0.0 0.0 0.00 0.00 0.00 59 991.1
20260509065509 44 248 0.0 0.0 0.00 0.00 0.00 59 991.5
20260509064511 44 248 0.0 0.0 0.00 0.00 0.00 59 991.5
20260509064017 44 248 0.0 0.0 0.00 0.00 0.00 59 991.5
20260509063508 44 248 0.0 0.0 0.00 0.00 0.00 59 991.5
20260509063009 44 248 0.0 0.0 0.00 0.00 0.00 58 991.5
20260509062516 44 248 0.0 0.0 0.00 0.00 0.00 57 991.5
20260509062009 44 248 0.0 0.0 0.00 0.00 0.00 57 991.5
20260509061016 45 248 0.0 0.0 0.00 0.00 0.00 56 991.5
20260509060509 45 248 0.0 0.0 0.00 0.00 0.00 56 991.5
20260509055510 45 248 0.0 0.0 0.00 0.00 0.00 55 991.8
20260509055009 45 248 0.0 0.0 0.00 0.00 0.00 55 991.8
20260509054510 46 248 0.0 0.0 0.00 0.00 0.00 55 992.2
20260509054009 46 248 0.0 0.0 0.00 0.00 0.00 55 991.8
20260509053510 46 248 0.0 0.0 0.00 0.00 0.00 55 991.9
20260509053009 46 248 0.0 0.0 0.00 0.00 0.00 55 991.8
20260509052509 46 248 0.0 0.0 0.00 0.00 0.00 54 992.2
20260509052009 46 248 0.0 0.0 0.00 0.00 0.00 53 992.2
20260509051510 47 248 0.0 0.0 0.00 0.00 0.00 53 992.2
20260509051009 47 248 0.0 0.0 0.00 0.00 0.00 53 992.2
20260509050509 47 248 0.0 0.0 0.00 0.00 0.00 52 992.2
20260509050008 47 248 0.0 0.0 0.00 0.00 0.00 52 992.2
20260509045508 47 248 0.0 0.0 0.00 0.00 0.00 52 992.2
20260509045008 47 248 0.0 0.0 0.00 0.00 0.00 51 992.2
20260509044509 48 248 0.0 0.0 0.00 0.00 0.00 51 992.2
20260509044009 48 248 0.0 0.0 0.00 0.00 0.00 51 992.2
20260509043009 48 248 0.0 0.0 0.00 0.00 0.00 51 992.4
20260509042508 49 248 0.0 0.0 0.00 0.00 0.00 51 992.5
20260509041016 49 248 0.0 0.0 0.00 0.00 0.00 50 992.5
20260509040508 49 248 0.0 0.0 0.00 0.00 0.00 50 992.5
20260509040008 50 248 0.0 0.0 0.00 0.00 0.00 50 992.7
20260509035515 50 248 0.0 0.0 0.00 0.00 0.00 49 992.8
20260509034509 50 248 0.0 0.0 0.00 0.00 0.00 49 992.8
20260509034009 51 248 0.0 0.0 0.00 0.00 0.00 48 992.8
20260509033508 51 248 0.0 0.0 0.00 0.00 0.00 47 993.1
20260509033009 51 248 0.0 0.0 0.00 0.00 0.00 47 993.1
20260509032509 51 248 0.0 0.0 0.00 0.00 0.00 46 992.8
20260509031509 51 248 0.0 0.0 0.00 0.00 0.00 46 993.2
20260509031014 52 248 0.0 0.0 0.00 0.00 0.00 46 993.2
20260509030008 52 248 0.0 0.0 0.00 0.00 0.00 45 993.2
20260509025508 52 248 0.0 0.0 0.00 0.00 0.00 44 993.2
20260509025008 53 248 0.0 0.0 0.00 0.00 0.00 44 993.3
20260509024008 53 248 0.0 0.0 0.00 0.00 0.00 43 993.5
20260509023509 53 248 0.0 0.0 0.00 0.00 0.00 43 993.2
20260509023008 54 248 0.0 0.0 0.00 0.00 0.00 42 993.2
20260509022515 54 248 0.0 0.0 0.00 0.00 0.00 42 993.3
20260509022008 54 248 0.0 0.0 0.00 0.00 0.00 42 993.3
20260509021509 55 248 0.0 0.0 0.00 0.00 0.00 42 993.5
20260509021008 55 248 0.0 0.0 0.00 0.00 0.00 42 993.2
20260509020508 55 248 0.0 0.0 0.00 0.00 0.00 41 993.2
20260509020008 56 248 0.0 0.0 0.00 0.00 0.00 40 993.2
20260509015507 56 248 0.0 0.0 0.00 0.00 0.00 39 993.2
20260509015008 57 248 0.0 0.0 0.00 0.00 0.00 39 993.2
20260509014007 57 248 0.0 0.0 0.00 0.00 0.00 38 993.2
20260509013507 58 248 0.0 0.0 0.00 0.00 0.00 38 993.2
20260509013008 58 248 0.0 0.0 0.00 0.00 0.00 37 992.9
20260509012507 59 248 0.0 0.0 0.00 0.00 0.00 37 992.9
20260509012007 59 248 0.0 0.0 0.00 0.00 0.00 37 992.8
20260509011508 59 248 0.0 0.0 0.00 0.00 0.00 37 993.0
20260509011007 60 248 0.0 0.0 0.00 0.00 0.00 37 992.8
20260509010508 60 248 0.0 0.0 0.00 0.00 0.00 36 992.8
20260509010007 60 248 0.0 0.0 0.00 0.00 0.00 36 992.8
20260509005508 61 248 0.0 0.0 0.00 0.00 0.00 36 992.8
20260509005007 61 248 0.0 0.0 0.00 0.00 0.00 36 992.9
20260509004507 61 248 0.0 0.0 0.00 0.00 0.00 36 992.8
20260509004007 61 248 0.0 0.0 0.00 0.00 0.00 36 992.8
20260509003506 62 248 0.0 0.0 0.00 0.00 0.00 35 992.8
20260509002508 62 248 0.0 0.0 0.00 0.00 0.00 35 992.7
20260509001008 63 270 0.0 0.0 0.00 0.00 0.00 35 992.6
20260509000508 63 270 0.0 0.0 0.00 0.00 0.00 34 992.5
20260509000007 63 225 0.0 0.0 0.00 0.00 0.00 34 992.5
20260508235506 63 248 0.0 0.0 0.00 0.00 0.00 34 992.5
20260508235006 63 248 0.0 0.0 0.00 0.00 0.00 34 992.5
20260508234006 64 158 0.0 0.0 0.00 0.00 0.00 34 992.5
20260508233506 64 248 0.0 0.0 0.00 0.00 0.00 33 992.5
20260508232514 64 225 0.0 0.0 0.00 0.00 0.00 33 992.6
20260508232007 64 248 0.0 0.0 0.00 0.00 0.00 33 992.8
20260508231507 64 270 0.0 0.0 0.00 0.00 0.00 33 992.8
20260508231013 65 225 0.0 0.0 0.00 0.00 0.00 33 992.8
20260508230506 65 225 0.0 0.0 0.00 0.00 0.00 32 992.8
20260508230007 66 225 0.0 0.0 0.00 0.00 0.00 32 992.8
20260508225514 66 180 0.0 0.0 0.00 0.00 0.00 32 992.8
20260508225006 66 225 0.0 0.0 0.00 0.00 0.00 33 992.8
20260508224006 66 248 0.0 0.0 0.00 0.00 0.00 32 992.8
20260508222507 66 270 0.0 0.0 0.00 0.00 0.00 32 993.2
20260508222008 66 225 0.0 0.0 0.00 0.00 0.00 32 993.2
20260508221006 66 180 0.0 0.0 0.00 0.00 0.00 32 993.2
20260508220507 66 225 0.0 0.0 0.00 0.00 0.00 32 993.2
20260508220007 66 248 0.0 0.0 0.00 0.00 0.00 32 993.2
20260508215507 66 180 0.0 0.0 0.00 0.00 0.00 33 993.2
20260508215006 66 203 0.0 0.0 0.00 0.00 0.00 32 993.2
20260508214506 66 225 0.0 0.0 0.00 0.00 0.00 32 993.2
20260508214014 66 180 0.0 0.0 0.00 0.00 0.00 32 993.2
20260508213507 67 270 0.0 0.0 0.00 0.00 0.00 32 993.2
20260508213006 67 270 0.0 0.0 0.00 0.00 0.00 33 993.2
20260508212507 67 180 0.0 0.0 0.00 0.00 0.00 33 993.2
20260508212007 67 203 0.0 0.0 0.00 0.00 0.00 32 993.2
20260508211506 67 270 0.0 0.0 0.00 0.00 0.00 33 993.2
20260508211006 67 203 0.0 0.0 0.00 0.00 0.00 32 993.4
20260508210506 67 225 0.0 0.0 0.00 0.00 0.00 33 993.5
20260508210006 67 248 0.0 0.0 0.00 0.00 0.00 33 993.5
20260508205514 67 225 0.0 0.0 0.00 0.00 0.00 34 993.5
20260508205007 66 225 0.0 0.0 0.00 0.00 0.00 33 993.5
20260508204506 66 203 0.0 0.0 0.00 0.00 0.00 33 993.5
20260508204006 66 225 0.0 0.0 0.00 0.00 0.00 33 993.9
20260508203007 66 203 0.0 0.0 0.00 0.00 0.00 34 993.9
20260508202507 66 203 0.0 0.0 0.00 0.00 0.00 34 993.9
20260508201506 65 315 0.0 0.0 0.00 0.00 0.00 35 994.1
20260508201006 65 248 0.0 0.0 0.00 0.00 0.00 35 994.2
20260508200507 65 293 0.0 0.0 0.00 0.00 0.00 34 994.2
20260508195506 66 225 0.0 0.0 0.00 0.00 0.00 34 994.4
20260508195006 67 225 0.0 0.0 0.00 0.00 0.00 34 994.2
20260508194507 67 180 0.0 0.0 0.00 0.00 0.00 34 994.5
20260508194014 67 180 0.0 0.0 0.00 0.00 0.00 35 994.5
20260508193506 67 180 0.0 0.0 0.00 0.00 0.00 35 994.8
20260508193007 67 180 0.0 0.0 0.00 0.00 0.00 35 994.6
20260508192507 67 248 0.0 0.0 0.00 0.00 0.00 35 994.9
20260508191506 66 270 0.0 0.0 0.00 0.00 0.00 36 994.9
20260508191014 66 270 0.0 0.0 0.00 0.00 0.00 36 995.2
20260508190506 66 225 0.0 0.0 0.00 0.00 0.00 36 995.2
20260508190006 65 270 0.0 0.0 0.00 0.00 0.00 35 995.2
20260508185506 65 248 0.0 0.0 0.00 0.00 0.00 35 995.2
20260508185006 65 248 0.0 0.0 0.00 0.00 0.00 36 995.2
20260508184008 65 180 0.0 0.0 0.00 0.00 0.00 36 995.3
20260508183507 64 270 0.0 0.0 0.00 0.00 0.00 36 995.2
20260508183007 64 158 0.0 0.0 0.00 0.00 0.00 36 995.5
20260508182513 64 225 0.0 0.0 0.00 0.00 0.00 36 995.5
20260508181007 64 248 0.0 0.0 0.00 0.00 0.00 37 995.7
20260508180507 64 203 0.0 0.0 0.00 0.00 0.00 36 995.5
20260508175506 64 293 0.0 0.0 0.00 0.00 0.00 37 995.9
20260508175006 64 225 0.0 0.0 0.00 0.00 0.00 38 995.9
20260508174007 64 270 0.0 0.0 0.00 0.00 0.00 38 995.9
20260508173506 63 270 0.0 0.0 0.00 0.00 0.00 39 996.2
20260508172507 63 180 0.0 0.0 0.00 0.00 0.00 39 996.2
20260508172007 63 270 0.0 0.0 0.00 0.00 0.00 38 996.4
20260508171014 63 203 0.0 0.0 0.00 0.00 0.00 39 996.6
20260508170506 63 270 0.0 0.0 0.00 0.00 0.00 39 996.6
20260508170007 63 180 0.0 0.0 0.00 0.00 0.00 42 996.6
20260508165507 63 180 0.0 0.0 0.00 0.00 0.00 42 996.6
20260508165007 62 315 0.0 0.0 0.00 0.00 0.00 42 996.6
20260508164013 61 158 0.0 0.0 0.00 0.00 0.00 42 996.9
20260508163507 61 248 0.0 0.0 0.00 0.00 0.00 42 996.9
20260508163006 61 248 0.0 0.0 0.00 0.00 0.00 43 997.2
20260508162506 60 203 0.0 0.0 0.00 0.00 0.00 43 996.9
20260508162007 60 180 0.0 0.0 0.00 0.00 0.00 44 996.9
20260508161507 60 248 0.0 0.0 0.00 0.00 0.00 44 997.0
20260508161014 59 158 0.0 0.0 0.00 0.00 0.00 45 997.2
20260508160506 59 180 0.0 0.0 0.00 0.00 0.00 46 997.2
20260508160006 58 225 0.0 0.0 0.00 0.00 0.00 47 997.2
20260508155508 58 225 0.0 0.0 0.00 0.00 0.00 47 997.2
20260508155007 57 270 0.0 0.0 0.00 0.00 0.00 47 997.2
20260508154507 57 248 0.0 0.0 0.00 0.00 0.00 49 997.2
20260508154014 56 315 0.0 0.0 0.00 0.00 0.00 50 997.4
20260508153507 55 293 0.0 0.0 0.00 0.00 0.00 50 997.6
20260508152506 54 248 0.0 0.0 0.00 0.00 0.00 51 997.6
20260508152006 54 158 0.0 0.0 0.00 0.00 0.00 53 997.6
20260508151008 53 248 0.0 0.0 0.00 0.00 0.00 55 997.6
20260508150507 53 158 0.0 0.0 0.00 0.00 0.00 56 997.6
20260508150007 53 180 0.0 0.0 0.00 0.00 0.00 56 997.6
20260508145506 53 248 0.0 0.0 0.00 0.00 0.00 57 997.6
20260508145007 52 180 0.0 0.0 0.00 0.00 0.00 57 997.6
20260508144014 52 180 0.0 0.0 0.00 0.00 0.00 59 997.8
20260508143508 51 248 0.0 0.0 0.00 0.00 0.00 60 997.7
20260508143006 51 248 0.0 0.0 0.00 0.00 0.00 61 997.9
20260508142514 51 225 0.0 0.0 0.00 0.00 0.00 60 997.9
20260508141508 51 248 0.0 0.0 0.00 0.00 0.00 61 997.9
20260508140848 50 225 0.0 0.0 0.00 0.00 0.00 62 998.0
20260508135508 50 158 0.0 0.0 0.00 0.00 0.00 64 997.9
20260508135349 50 248 0.0 0.0 0.00 0.00 0.00 64 997.9
20260508135007 50 180 0.0 0.0 0.00 0.00 0.00 64 997.9
20260508134506 50 158 0.0 0.0 0.00 0.00 0.00 64 997.9
20260508134007 50 203 0.0 0.0 0.00 0.00 0.00 65 998.3
20260508133849 50 203 0.0 0.0 0.00 0.00 0.00 65 998.2
20260508133507 50 158 0.0 0.0 0.00 0.00 0.00 65 998.2
20260508133006 50 248 0.0 0.0 0.00 0.00 0.00 66 998.0
20260508132507 50 203 0.0 0.0 0.00 0.00 0.00 66 997.9
20260508132348 50 203 0.0 0.0 0.00 0.00 0.00 66 998.1
20260508132007 50 225 0.0 0.0 0.00 0.00 0.00 66 998.0
20260508131507 50 225 0.0 0.0 0.00 0.00 0.00 68 998.0
20260508131007 50 270 0.0 0.0 0.00 0.00 0.00 68 998.3
20260508130848 49 248 0.0 0.0 0.00 0.00 0.00 68 998.3
20260508130506 49 203 0.0 0.0 0.00 0.00 0.00 69 998.3
20260508130007 49 225 0.0 0.0 0.00 0.00 0.00 70 998.3
20260508125506 48 203 0.0 0.0 0.00 0.00 0.00 71 998.3
20260508125349 48 180 0.0 0.0 0.00 0.00 0.00 72 998.3
20260508124506 47 180 0.0 0.0 0.00 0.00 0.00 74 998.3
20260508124006 47 180 0.0 0.0 0.00 0.00 0.00 75 998.1
20260508123849 47 248 0.0 0.0 0.00 0.00 0.00 76 997.9
20260508123508 46 248 0.0 0.0 0.00 0.00 0.00 76 997.9
20260508123006 46 203 0.0 0.0 0.00 0.00 0.00 77 998.2
20260508122349 45 180 0.0 0.0 0.00 0.00 0.00 78 998.2